USA 18

导读

USA 18是美国于1986年2月9日发射的军事侦察卫星,隶属于美国国家侦察局。作为冷战时期美国太空情报体系的重要组成部分,它主要承担图像侦察与电子信号监测任务,依托低轨道运行优势,可对全球重点区域实现高频次覆盖观测,为军方提供战略态势情报支持。该卫星代表了当时美国航天侦察技术的先进水平,服役期间为美国掌握全球军事动态发挥了关键作用,至今已完成使命脱离在轨运行序列,是美国早期军事卫星体系的典型代表。

基本信息
目录编号:
16631
目录名称:
USA 18
国际标识:
1986-014H
轨道中心:
EARTH
卫星名称:
USA 18
卫星全名:
--
卫星状态:
在轨 (已飞行14818 天)
发射日期:
1986-02-09 UTC
国别 :
美国 (US)
星等 :
--
轨道信息
数据来源 国际轨道数据 AOE轨道数据
星历时间 2026-09-05T13:14:20+0800
7小时前
查看轨道信息
2026-09-04T16:00:00+0800
1天前
查看轨道信息
半长轴 7294.876km 7294.854km
偏心率 0.0745353 0.0745343
轨道倾角 63.294° 63.293°
近地点辐角 114.105° 114.094°
升交点赤经 162.508° 165.012°
平近点角 253.978° 134.869°
近地点 373.013km 373km
远地点 1460.465km 1460.434km
周期 103.344分钟 103.344分钟
每日圈数 13.934004 13.934068
详细信息
使用方式:
暂无
2D轨道图
3D轨道图
轨道高度分析图
轨道倾角分析图
轨道综合分析图
查看轨道综合分析图